TAM455 SBTE-SBBR

Flight info

Callsign TAM455
Flight time 1h 50m
Altitude 34000
Route GUEST DCT KADAG DCT TOLAT
Aircraft A320/M-SDE3FGHIRWY/LB1

Departure

Time 2026-05-09 11:18
Airport Senador Petrônio Portela Airport (SBTE)

Arrival

Time 2026-05-09 13:08
Airport Presidente Juscelino Kubitschek International Airport (SBBR)
Time Latitude Longitude Altitude Speed Heading
2026-05-09 11:03 -5.06414 -42.82166 213 ft 0 kts 120°
2026-05-09 11:09 -5.06412 -42.82170 219 ft 4 kts 118°
2026-05-09 11:10 -5.06401 -42.82195 216 ft 4 kts 102°
2026-05-09 11:10 -5.06398 -42.82212 214 ft 0 kts 96°
2026-05-09 11:13 -5.06396 -42.82207 214 ft 3 kts 69°
2026-05-09 11:13 -5.06373 -42.82216 213 ft 4 kts 311°
2026-05-09 11:13 -5.06367 -42.82241 214 ft 0 kts 272°
2026-05-09 11:14 -5.06367 -42.82248 218 ft 7 kts 272°
2026-05-09 11:14 -5.06366 -42.82323 223 ft 7 kts 324°
2026-05-09 11:14 -5.06287 -42.82343 215 ft 17 kts 353°
2026-05-09 11:14 -5.06173 -42.82356 223 ft 16 kts 354°
2026-05-09 11:15 -5.06035 -42.82368 213 ft 26 kts 356°
2026-05-09 11:15 -5.05830 -42.82388 214 ft 30 kts 353°
2026-05-09 11:15 -5.05622 -42.82412 212 ft 31 kts 353°
2026-05-09 11:15 -5.05418 -42.82435 213 ft 29 kts 354°
2026-05-09 11:16 -5.05230 -42.82455 220 ft 26 kts 354°
2026-05-09 11:16 -5.05100 -42.82454 219 ft 12 kts 22°
2026-05-09 11:16 -5.05040 -42.82442 217 ft 9 kts 341°
2026-05-09 11:16 -5.05060 -42.82473 212 ft 6 kts 179°
2026-05-09 11:17 -5.05073 -42.82471 215 ft 0 kts 174°
2026-05-09 11:17 -5.05089 -42.82470 221 ft 18 kts 174°
2026-05-09 11:17 -5.05508 -42.82424 212 ft 102 kts 174°
2026-05-09 11:18 -5.06457 -42.82322 244 ft 166 kts 173°
2026-05-09 11:18 -5.07653 -42.82208 915 ft 175 kts 172°
2026-05-09 11:18 -5.08861 -42.82092 1751 ft 175 kts 171°
2026-05-09 11:18 -5.10126 -42.81967 2126 ft 193 kts 171°
2026-05-09 11:19 -5.11546 -42.81823 2400 ft 217 kts 171°
2026-05-09 11:19 -5.13136 -42.81665 2769 ft 242 kts 172°
2026-05-09 11:19 -5.14872 -42.81870 3286 ft 265 kts 198°
2026-05-09 11:19 -5.16550 -42.82704 4040 ft 273 kts 206°
2026-05-09 11:20 -5.18187 -42.83694 4886 ft 276 kts 208°
2026-05-09 11:20 -5.19805 -42.84708 5706 ft 280 kts 208°
2026-05-09 11:20 -5.21479 -42.85733 6454 ft 284 kts 207°
2026-05-09 11:20 -5.23193 -42.86740 7156 ft 288 kts 206°
2026-05-09 11:21 -5.24950 -42.87736 7858 ft 292 kts 206°
2026-05-09 11:21 -5.26736 -42.88726 8550 ft 296 kts 205°
2026-05-09 11:21 -5.28560 -42.89722 9250 ft 300 kts 205°
2026-05-09 11:21 -5.30413 -42.90725 9948 ft 305 kts 205°
2026-05-09 11:22 -5.32287 -42.91736 10323 ft 320 kts 205°
2026-05-09 11:22 -5.34324 -42.92831 10487 ft 343 kts 205°
2026-05-09 11:22 -5.36499 -42.94003 10613 ft 365 kts 206°
2026-05-09 11:22 -5.38782 -42.95241 10877 ft 380 kts 206°
2026-05-09 11:23 -5.41123 -42.96515 11401 ft 385 kts 206°
2026-05-09 11:23 -5.43490 -42.97809 11966 ft 388 kts 206°
2026-05-09 11:23 -5.45869 -42.99107 12547 ft 392 kts 207°
2026-05-09 11:23 -5.48274 -43.00420 13128 ft 395 kts 207°
2026-05-09 11:24 -5.50701 -43.01742 13679 ft 398 kts 207°
2026-05-09 11:24 -5.53119 -43.03059 14172 ft 402 kts 207°
2026-05-09 11:24 -5.55584 -43.04400 14665 ft 404 kts 207°
2026-05-09 11:24 -5.58061 -43.05747 15159 ft 407 kts 207°
2026-05-09 11:25 -5.60561 -43.07107 15633 ft 410 kts 207°
2026-05-09 11:25 -5.63078 -43.08477 16111 ft 413 kts 207°
2026-05-09 11:25 -5.65615 -43.09858 16574 ft 416 kts 207°
2026-05-09 11:25 -5.68167 -43.11256 17052 ft 419 kts 208°
2026-05-09 11:26 -5.70709 -43.12717 17522 ft 423 kts 210°
2026-05-09 11:26 -5.73244 -43.14231 17993 ft 426 kts 210°
2026-05-09 11:26 -5.75753 -43.15760 18434 ft 429 kts 211°
2026-05-09 11:26 -5.78309 -43.17325 18828 ft 432 kts 211°
2026-05-09 11:27 -5.80885 -43.18895 19220 ft 434 kts 211°
2026-05-09 11:27 -5.83482 -43.20463 19610 ft 437 kts 210°
2026-05-09 11:27 -5.86099 -43.22031 19992 ft 439 kts 210°
2026-05-09 11:27 -5.88727 -43.23600 20358 ft 442 kts 210°
2026-05-09 11:28 -5.91378 -43.25177 20720 ft 444 kts 210°
2026-05-09 11:28 -5.94044 -43.26763 21068 ft 446 kts 210°
2026-05-09 11:28 -5.96688 -43.28339 21408 ft 449 kts 210°
2026-05-09 11:28 -5.99372 -43.29943 21748 ft 451 kts 210°
2026-05-09 11:29 -6.02075 -43.31564 22078 ft 453 kts 211°
2026-05-09 11:29 -6.04789 -43.33193 22400 ft 455 kts 211°
2026-05-09 11:29 -6.07517 -43.34828 22713 ft 458 kts 211°
2026-05-09 11:29 -6.10259 -43.36467 23024 ft 459 kts 210°
2026-05-09 11:30 -6.13011 -43.38111 23350 ft 461 kts 210°
2026-05-09 11:30 -6.15769 -43.39762 23623 ft 463 kts 210°
2026-05-09 11:30 -6.18537 -43.41422 23870 ft 464 kts 210°
2026-05-09 11:30 -6.21279 -43.43068 24108 ft 466 kts 210°
2026-05-09 11:31 -6.24069 -43.44744 24319 ft 468 kts 211°
2026-05-09 11:31 -6.26870 -43.46427 24562 ft 469 kts 210°
2026-05-09 11:31 -6.29673 -43.48110 24781 ft 471 kts 210°
2026-05-09 11:31 -6.32492 -43.49800 24999 ft 472 kts 211°
2026-05-09 11:32 -6.35316 -43.51489 25250 ft 473 kts 210°
2026-05-09 11:32 -6.38147 -43.53181 25456 ft 475 kts 210°
2026-05-09 11:32 -6.40949 -43.54858 25689 ft 475 kts 210°
2026-05-09 11:32 -6.43790 -43.56560 25935 ft 475 kts 211°
2026-05-09 11:33 -6.46635 -43.58266 26134 ft 477 kts 210°
2026-05-09 11:33 -6.49482 -43.59975 26369 ft 477 kts 210°
2026-05-09 11:33 -6.55191 -43.63403 26789 ft 479 kts 211°
2026-05-09 11:34 -6.58055 -43.65122 26998 ft 479 kts 210°
2026-05-09 11:34 -6.60919 -43.66841 27191 ft 480 kts 210°
2026-05-09 11:34 -6.63792 -43.68562 27391 ft 481 kts 210°
2026-05-09 11:34 -6.66630 -43.70262 27570 ft 481 kts 210°
2026-05-09 11:35 -6.69509 -43.71988 27750 ft 482 kts 210°
2026-05-09 11:35 -6.72389 -43.73718 27911 ft 483 kts 210°
2026-05-09 11:35 -6.75268 -43.75449 28155 ft 481 kts 210°
2026-05-09 11:35 -6.78138 -43.77177 28412 ft 480 kts 210°
2026-05-09 11:36 -6.80991 -43.78894 28663 ft 478 kts 211°
2026-05-09 11:36 -6.83847 -43.80611 28917 ft 477 kts 210°
2026-05-09 11:36 -6.86692 -43.82319 29185 ft 475 kts 210°
2026-05-09 11:36 -6.89526 -43.84022 29455 ft 474 kts 210°
2026-05-09 11:37 -6.92349 -43.85717 29708 ft 473 kts 211°
2026-05-09 11:37 -6.95126 -43.87387 29995 ft 470 kts 210°
2026-05-09 11:37 -6.97932 -43.89077 30235 ft 469 kts 211°
2026-05-09 11:37 -7.00736 -43.90767 30448 ft 468 kts 211°
2026-05-09 11:38 -7.03522 -43.92447 30681 ft 467 kts 211°
2026-05-09 11:38 -7.06309 -43.94122 30890 ft 466 kts 211°
2026-05-09 11:38 -7.09099 -43.95793 31101 ft 466 kts 211°
2026-05-09 11:38 -7.11873 -43.97455 31358 ft 464 kts 211°
2026-05-09 11:39 -7.14639 -43.99120 31590 ft 463 kts 211°
2026-05-09 11:39 -7.17399 -44.00785 31825 ft 462 kts 211°
2026-05-09 11:39 -7.20110 -44.02419 32083 ft 459 kts 211°
2026-05-09 11:40 -7.25602 -44.05713 32481 ft 459 kts 212°
2026-05-09 11:40 -7.28338 -44.07358 32745 ft 457 kts 211°
2026-05-09 11:40 -7.31068 -44.09004 32946 ft 458 kts 212°
2026-05-09 11:40 -7.33791 -44.10650 33155 ft 457 kts 212°
2026-05-09 11:41 -7.36512 -44.12294 33403 ft 455 kts 212°
2026-05-09 11:41 -7.39232 -44.13937 33603 ft 456 kts 212°
2026-05-09 11:41 -7.41955 -44.15578 33802 ft 456 kts 212°
2026-05-09 11:41 -7.44637 -44.17196 33978 ft 455 kts 212°
2026-05-09 11:42 -7.47361 -44.18840 34032 ft 458 kts 212°
2026-05-09 11:42 -7.52834 -44.22140 34035 ft 458 kts 212°
2026-05-09 11:43 -7.58318 -44.25446 34033 ft 460 kts 212°
2026-05-09 11:43 -7.63799 -44.28755 34038 ft 460 kts 212°
2026-05-09 11:44 -7.69258 -44.32042 34037 ft 459 kts 213°
2026-05-09 11:44 -7.74741 -44.35348 34034 ft 459 kts 212°
2026-05-09 11:45 -7.80220 -44.38662 34032 ft 459 kts 212°
2026-05-09 11:45 -7.85698 -44.41980 34034 ft 459 kts 212°
2026-05-09 11:46 -7.91182 -44.45292 34035 ft 460 kts 212°
2026-05-09 11:46 -7.96638 -44.48582 34029 ft 460 kts 212°
2026-05-09 11:47 -8.02133 -44.51898 34037 ft 460 kts 212°
2026-05-09 11:47 -8.07622 -44.55214 34032 ft 460 kts 212°
2026-05-09 11:48 -8.13114 -44.58544 34037 ft 460 kts 212°
2026-05-09 11:48 -8.18564 -44.61849 34039 ft 460 kts 213°
2026-05-09 11:49 -8.24059 -44.65175 34037 ft 460 kts 212°
2026-05-09 11:49 -8.29555 -44.68495 34034 ft 460 kts 212°
2026-05-09 11:50 -8.35048 -44.71815 34039 ft 460 kts 212°
2026-05-09 11:50 -8.40534 -44.75149 34035 ft 460 kts 213°
2026-05-09 11:51 -8.45986 -44.78459 34031 ft 460 kts 212°
2026-05-09 11:51 -8.51481 -44.81780 34035 ft 460 kts 212°
2026-05-09 11:52 -8.56970 -44.85105 34032 ft 460 kts 212°
2026-05-09 11:52 -8.61529 -44.87879 34037 ft 460 kts 213°
2026-05-09 11:53 -8.67903 -44.91757 34039 ft 460 kts 213°
2026-05-09 11:53 -8.72503 -44.94556 34038 ft 460 kts 212°
2026-05-09 11:54 -8.77948 -44.97860 34037 ft 460 kts 213°
2026-05-09 11:54 -8.83433 -45.01193 34038 ft 460 kts 212°
2026-05-09 11:55 -8.89811 -45.05071 34038 ft 460 kts 212°
2026-05-09 11:56 -9.05344 -45.14514 34042 ft 460 kts 212°
2026-05-09 11:57 -9.11727 -45.18388 34048 ft 460 kts 212°
2026-05-09 11:57 -9.16289 -45.21164 34057 ft 460 kts 213°
2026-05-09 11:58 -9.21776 -45.24516 34050 ft 461 kts 212°
2026-05-09 11:58 -9.27263 -45.27859 34048 ft 461 kts 212°
2026-05-09 11:59 -9.32755 -45.31206 34048 ft 461 kts 212°
2026-05-09 11:59 -9.38250 -45.34550 34050 ft 461 kts 212°
2026-05-09 12:00 -9.43705 -45.37882 34054 ft 461 kts 213°
2026-05-09 12:00 -9.49190 -45.41237 34058 ft 461 kts 213°
2026-05-09 12:01 -9.54687 -45.44586 34059 ft 461 kts 212°
2026-05-09 12:01 -9.60186 -45.47939 34062 ft 461 kts 213°
2026-05-09 12:02 -9.65635 -45.51268 34058 ft 461 kts 213°
2026-05-09 12:02 -9.71128 -45.54624 34055 ft 461 kts 213°
2026-05-09 12:03 -9.76618 -45.57989 34062 ft 461 kts 213°
2026-05-09 12:03 -9.82108 -45.61352 34062 ft 461 kts 212°
2026-05-09 12:04 -9.87567 -45.64690 34059 ft 461 kts 212°
2026-05-09 12:04 -9.93062 -45.68054 34057 ft 461 kts 213°
2026-05-09 12:05 -9.98556 -45.71420 34070 ft 461 kts 212°
2026-05-09 12:05 -10.04052 -45.74780 34073 ft 461 kts 213°
2026-05-09 12:06 -10.09511 -45.78119 34075 ft 461 kts 214°
2026-05-09 12:06 -10.14992 -45.81486 34079 ft 461 kts 213°
2026-05-09 12:07 -10.20477 -45.84857 34079 ft 461 kts 212°
2026-05-09 12:07 -10.25964 -45.88216 34080 ft 461 kts 212°
2026-05-09 12:08 -10.31451 -45.91582 34083 ft 461 kts 213°
2026-05-09 12:08 -10.36900 -45.94931 34078 ft 461 kts 213°
2026-05-09 12:09 -10.42386 -45.98307 34080 ft 461 kts 213°
2026-05-09 12:09 -10.47871 -46.01677 34083 ft 461 kts 213°
2026-05-09 12:10 -10.58849 -46.08423 34084 ft 461 kts 213°
2026-05-09 12:11 -10.64302 -46.11778 34085 ft 461 kts 214°
2026-05-09 12:11 -10.69787 -46.15158 34088 ft 460 kts 213°
2026-05-09 12:12 -10.75261 -46.18532 34083 ft 460 kts 213°
2026-05-09 12:12 -10.80741 -46.21908 34090 ft 460 kts 213°
2026-05-09 12:13 -10.86178 -46.25259 34086 ft 460 kts 214°
2026-05-09 12:13 -10.91643 -46.28635 34095 ft 460 kts 213°
2026-05-09 12:14 -10.97115 -46.32007 34086 ft 460 kts 213°
2026-05-09 12:14 -11.02588 -46.35378 34082 ft 460 kts 213°
2026-05-09 12:15 -11.08020 -46.38739 34082 ft 460 kts 213°
2026-05-09 12:15 -11.13487 -46.42122 34080 ft 460 kts 213°
2026-05-09 12:16 -11.18951 -46.45498 34087 ft 460 kts 214°
2026-05-09 12:16 -11.24329 -46.48822 34088 ft 460 kts 213°
2026-05-09 12:17 -11.29805 -46.52206 34082 ft 460 kts 213°
2026-05-09 12:17 -11.35232 -46.55558 34084 ft 460 kts 213°
2026-05-09 12:18 -11.40700 -46.58943 34086 ft 460 kts 212°
2026-05-09 12:18 -11.46169 -46.62341 34082 ft 460 kts 212°
2026-05-09 12:19 -11.51638 -46.65730 34078 ft 460 kts 212°
2026-05-09 12:19 -11.57080 -46.69102 34078 ft 460 kts 213°
2026-05-09 12:20 -11.62556 -46.72497 34075 ft 460 kts 213°
2026-05-09 12:20 -11.68027 -46.75891 34071 ft 461 kts 213°
2026-05-09 12:21 -11.73501 -46.79290 34068 ft 460 kts 213°
2026-05-09 12:21 -11.78968 -46.82684 34062 ft 460 kts 213°
2026-05-09 12:22 -11.84438 -46.86082 34063 ft 460 kts 213°
2026-05-09 12:22 -11.89867 -46.89465 34062 ft 460 kts 212°
2026-05-09 12:23 -11.95308 -46.92915 34061 ft 460 kts 214°
2026-05-09 12:23 -12.00583 -46.96617 34059 ft 460 kts 217°
2026-05-09 12:24 -12.05747 -47.00398 34066 ft 460 kts 217°
2026-05-09 12:24 -12.10978 -47.04158 34066 ft 460 kts 216°
2026-05-09 12:25 -12.16247 -47.07869 34063 ft 460 kts 216°
2026-05-09 12:25 -12.21523 -47.11582 34064 ft 460 kts 216°
2026-05-09 12:26 -12.26756 -47.15283 34069 ft 460 kts 216°
2026-05-09 12:26 -12.32018 -47.19010 34074 ft 460 kts 216°
2026-05-09 12:27 -12.37278 -47.22743 34071 ft 460 kts 216°
2026-05-09 12:27 -12.42537 -47.26480 34071 ft 460 kts 216°
2026-05-09 12:28 -12.47789 -47.30206 34066 ft 460 kts 216°
2026-05-09 12:28 -12.53014 -47.33910 34064 ft 460 kts 216°
2026-05-09 12:29 -12.58273 -47.37641 34067 ft 460 kts 216°
2026-05-09 12:29 -12.63520 -47.41382 34063 ft 460 kts 216°
2026-05-09 12:30 -12.68777 -47.45127 34061 ft 460 kts 216°
2026-05-09 12:30 -12.76631 -47.50706 34067 ft 460 kts 216°
2026-05-09 12:31 -12.84532 -47.56323 34063 ft 461 kts 216°
2026-05-09 12:32 -12.89787 -47.60078 34062 ft 461 kts 216°
2026-05-09 12:32 -12.95045 -47.63844 34068 ft 461 kts 216°
2026-05-09 12:33 -13.00276 -47.67577 34071 ft 461 kts 216°
2026-05-09 12:33 -13.05543 -47.71326 34076 ft 461 kts 216°
2026-05-09 12:34 -13.10808 -47.75075 34068 ft 461 kts 216°
2026-05-09 12:34 -13.15959 -47.78756 34076 ft 460 kts 216°
2026-05-09 12:35 -13.21123 -47.82455 34070 ft 460 kts 217°
2026-05-09 12:35 -13.26377 -47.86216 34083 ft 460 kts 216°
2026-05-09 12:36 -13.31623 -47.89963 34079 ft 460 kts 217°
2026-05-09 12:36 -13.36867 -47.93718 34084 ft 460 kts 216°
2026-05-09 12:37 -13.42114 -47.97478 34065 ft 460 kts 216°
2026-05-09 12:37 -13.47331 -48.01218 34059 ft 460 kts 216°
2026-05-09 12:38 -13.52569 -48.04983 34060 ft 460 kts 216°
2026-05-09 12:38 -13.57819 -48.08755 34064 ft 460 kts 216°
2026-05-09 12:39 -13.63070 -48.12528 34062 ft 460 kts 216°
2026-05-09 12:39 -13.68290 -48.16272 34073 ft 461 kts 216°
2026-05-09 12:40 -13.73539 -48.20047 34065 ft 460 kts 217°
2026-05-09 12:40 -13.78792 -48.23819 34064 ft 460 kts 216°
2026-05-09 12:41 -13.84037 -48.27581 34062 ft 460 kts 217°
2026-05-09 12:41 -13.89247 -48.31337 34066 ft 460 kts 217°
2026-05-09 12:42 -13.94486 -48.35117 34066 ft 460 kts 217°
2026-05-09 12:42 -13.99728 -48.38901 34077 ft 460 kts 217°
2026-05-09 12:43 -14.04976 -48.42688 34089 ft 460 kts 217°
2026-05-09 12:43 -14.10183 -48.46440 34081 ft 460 kts 217°
2026-05-09 12:44 -14.15599 -48.49942 34075 ft 462 kts 206°
2026-05-09 12:44 -14.21802 -48.51733 34070 ft 467 kts 189°
2026-05-09 12:45 -14.28239 -48.52581 34069 ft 467 kts 189°
2026-05-09 12:45 -14.34686 -48.53425 34067 ft 467 kts 189°
2026-05-09 12:46 -14.41096 -48.54266 34068 ft 468 kts 189°
2026-05-09 12:46 -14.47548 -48.55118 34073 ft 467 kts 189°
2026-05-09 12:47 -14.54003 -48.55979 34072 ft 467 kts 189°
2026-05-09 12:47 -14.60453 -48.56833 34079 ft 467 kts 190°
2026-05-09 12:48 -14.66837 -48.57679 33860 ft 460 kts 190°
2026-05-09 12:48 -14.69971 -48.58093 33603 ft 448 kts 190°
2026-05-09 12:48 -14.73025 -48.58495 33346 ft 437 kts 190°
2026-05-09 12:48 -14.76014 -48.58891 33029 ft 429 kts 190°
2026-05-09 12:49 -14.78965 -48.59288 32510 ft 427 kts 190°
2026-05-09 12:49 -14.81901 -48.59682 31945 ft 423 kts 189°
2026-05-09 12:49 -14.84807 -48.60071 31133 ft 419 kts 189°
2026-05-09 12:49 -14.87685 -48.60454 30338 ft 415 kts 189°
2026-05-09 12:50 -14.90534 -48.60833 29479 ft 412 kts 189°
2026-05-09 12:50 -14.93323 -48.61203 28659 ft 407 kts 189°
2026-05-09 12:50 -14.96121 -48.61574 27870 ft 403 kts 188°
2026-05-09 12:50 -14.98880 -48.61932 27113 ft 398 kts 186°
2026-05-09 12:51 -15.01629 -48.61914 26381 ft 394 kts 173°
2026-05-09 12:51 -15.04286 -48.61307 25631 ft 390 kts 160°
2026-05-09 12:51 -15.06757 -48.60182 24897 ft 386 kts 152°
2026-05-09 12:51 -15.09146 -48.58935 24184 ft 382 kts 152°
2026-05-09 12:52 -15.11505 -48.57712 23494 ft 378 kts 152°
2026-05-09 12:52 -15.13848 -48.56501 22687 ft 374 kts 152°
2026-05-09 12:52 -15.16133 -48.55320 21978 ft 369 kts 153°
2026-05-09 12:52 -15.18411 -48.54139 21298 ft 364 kts 153°
2026-05-09 12:53 -15.20661 -48.52973 20603 ft 360 kts 153°
2026-05-09 12:53 -15.22885 -48.51821 19952 ft 355 kts 153°
2026-05-09 12:53 -15.25079 -48.50684 19313 ft 351 kts 153°
2026-05-09 12:53 -15.27252 -48.49555 18664 ft 348 kts 153°
2026-05-09 12:54 -15.29410 -48.48434 18000 ft 345 kts 153°
2026-05-09 12:54 -15.31542 -48.47326 17305 ft 341 kts 152°
2026-05-09 12:54 -15.33625 -48.46243 16640 ft 338 kts 152°
2026-05-09 12:54 -15.35711 -48.45159 16018 ft 333 kts 152°
2026-05-09 12:55 -15.37773 -48.44089 15406 ft 330 kts 151°
2026-05-09 12:55 -15.39804 -48.43035 14955 ft 324 kts 152°
2026-05-09 12:55 -15.41826 -48.41983 14521 ft 327 kts 152°
2026-05-09 12:55 -15.43845 -48.40931 14178 ft 325 kts 152°
2026-05-09 12:56 -15.45860 -48.39882 13759 ft 320 kts 152°
2026-05-09 12:56 -15.47839 -48.38854 13135 ft 316 kts 152°
2026-05-09 12:56 -15.49757 -48.37858 12637 ft 309 kts 152°
2026-05-09 12:56 -15.51655 -48.36873 12169 ft 301 kts 152°
2026-05-09 12:57 -15.53536 -48.35893 11676 ft 305 kts 151°
2026-05-09 12:57 -15.55448 -48.34895 11183 ft 310 kts 152°
2026-05-09 12:57 -15.57354 -48.33899 10907 ft 304 kts 151°
2026-05-09 12:57 -15.59233 -48.32916 10284 ft 302 kts 151°
2026-05-09 12:58 -15.61098 -48.31947 9745 ft 296 kts 152°
2026-05-09 12:58 -15.62932 -48.31005 9634 ft 295 kts 153°
2026-05-09 12:58 -15.64774 -48.30061 9489 ft 295 kts 152°
2026-05-09 12:58 -15.66586 -48.29132 9298 ft 294 kts 152°
2026-05-09 12:59 -15.68416 -48.28192 9094 ft 292 kts 152°
2026-05-09 12:59 -15.70239 -48.27252 8901 ft 293 kts 151°
2026-05-09 12:59 -15.72077 -48.26307 8699 ft 295 kts 151°
2026-05-09 12:59 -15.73886 -48.25378 8505 ft 286 kts 151°
2026-05-09 13:00 -15.75640 -48.24479 8316 ft 277 kts 150°
2026-05-09 13:00 -15.77342 -48.23604 8142 ft 268 kts 150°
2026-05-09 13:00 -15.79019 -48.22892 7964 ft 255 kts 163°
2026-05-09 13:00 -15.80740 -48.22572 7793 ft 254 kts 170°
2026-05-09 13:01 -15.82474 -48.22300 7602 ft 250 kts 162°
2026-05-09 13:01 -15.84076 -48.21618 7325 ft 248 kts 144°
2026-05-09 13:01 -15.85375 -48.20517 7151 ft 239 kts 127°
2026-05-09 13:01 -15.86306 -48.19143 7016 ft 227 kts 111°
2026-05-09 13:02 -15.86949 -48.17730 6933 ft 207 kts 112°
2026-05-09 13:02 -15.87512 -48.16412 6828 ft 194 kts 105°
2026-05-09 13:02 -15.87700 -48.15088 6738 ft 179 kts 88°
2026-05-09 13:02 -15.87679 -48.13859 6674 ft 167 kts 84°
2026-05-09 13:03 -15.87622 -48.12704 6600 ft 156 kts 84°
2026-05-09 13:03 -15.87557 -48.11583 6532 ft 153 kts 83°
2026-05-09 13:03 -15.87489 -48.10481 6456 ft 152 kts 83°
2026-05-09 13:03 -15.87419 -48.09379 6399 ft 154 kts 83°
2026-05-09 13:04 -15.87350 -48.08281 6283 ft 152 kts 83°
2026-05-09 13:04 -15.87280 -48.07187 6115 ft 152 kts 82°
2026-05-09 13:04 -15.87211 -48.06101 5937 ft 149 kts 81°
2026-05-09 13:04 -15.87144 -48.05036 5786 ft 147 kts 83°
2026-05-09 13:05 -15.87077 -48.03989 5590 ft 148 kts 83°
2026-05-09 13:05 -15.87009 -48.02932 5394 ft 145 kts 84°
2026-05-09 13:05 -15.86942 -48.01889 5218 ft 144 kts 83°
2026-05-09 13:05 -15.86875 -48.00838 5035 ft 149 kts 83°
2026-05-09 13:06 -15.86808 -47.99780 4836 ft 145 kts 84°
2026-05-09 13:06 -15.86741 -47.98745 4646 ft 144 kts 84°
2026-05-09 13:06 -15.86675 -47.97710 4470 ft 143 kts 83°
2026-05-09 13:06 -15.86610 -47.96692 4283 ft 142 kts 83°
2026-05-09 13:07 -15.86543 -47.95653 4080 ft 146 kts 83°
2026-05-09 13:07 -15.86476 -47.94607 3870 ft 146 kts 85°
2026-05-09 13:07 -15.86409 -47.93565 3667 ft 143 kts 86°
2026-05-09 13:07 -15.86341 -47.92540 3480 ft 139 kts 86°
2026-05-09 13:08 -15.86289 -47.91695 3463 ft 81 kts 86°
2026-05-09 13:08 -15.86260 -47.91234 3467 ft 56 kts 86°
2026-05-09 13:08 -15.86242 -47.90935 3476 ft 28 kts 87°
2026-05-09 13:08 -15.86294 -47.90804 3479 ft 15 kts 131°
2026-05-09 13:09 -15.86355 -47.90735 3480 ft 11 kts 132°
2026-05-09 13:09 -15.86401 -47.90701 3481 ft 7 kts 178°
2026-05-09 13:09 -15.86424 -47.90731 3481 ft 5 kts 260°
2026-05-09 13:09 -15.86425 -47.90798 3483 ft 20 kts 267°
2026-05-09 13:10 -15.86437 -47.90970 3473 ft 26 kts 266°
2026-05-09 13:10 -15.86449 -47.91166 3469 ft 28 kts 266°
2026-05-09 13:10 -15.86461 -47.91352 3468 ft 25 kts 266°
2026-05-09 13:10 -15.86471 -47.91500 3465 ft 19 kts 266°
2026-05-09 13:11 -15.86486 -47.91612 3464 ft 12 kts 237°
2026-05-09 13:11 -15.86542 -47.91628 3466 ft 8 kts 176°
2026-05-09 13:11 -15.86625 -47.91622 3471 ft 8 kts 176°
2026-05-09 13:11 -15.86681 -47.91658 3471 ft 14 kts 255°
2026-05-09 13:12 -15.86712 -47.91706 3472 ft 11 kts 198°
2026-05-09 13:12 -15.86766 -47.91707 3471 ft 0 kts 177°
2026-05-09 13:12 -15.86787 -47.91712 3472 ft 6 kts 214°
2026-05-09 13:12 -15.86789 -47.91740 3472 ft 3 kts 269°
2026-05-09 13:13 -15.86789 -47.91758 3472 ft 2 kts 267°
2026-05-09 13:13 -15.86790 -47.91761 3472 ft 0 kts 266°